Home > Weather > Düren > Past weeks

Flag for Germany Past Weather in Düren, North Rhine-Westphalia, Germany — Yesterday and Last 2 Weeks

Now
57 °F

Passing clouds.


Feels Like: 57 °F
Forecast: 54 / 67 °F
Wind: 5 mph from Southwest

Location: Noervenich

Current Time: Jun 27, 2016 at 12:43:40 AM

Latest Report: Jun 26, 2016 at 11:20 PM


Visibility: N/A

Pressure: 30.09 "Hg

Humidity: 82%

Dew Point: 52 °F

Location of DürenLocation

Past Weather in Düren — Graph

°F

Düren Temperature Yesterday

Maximum temperature yesterday: 66 °F (at 2:20 PM)
Minimum temperature yesterday: 52 °F (at 5:20 AM)
Average temperature yesterday: 59 °F

High & Low Weather Summary for the Past Weeks

 TemperatureHumidityPressure
High91 °F (Jun 23, 2:20 PM)100% (Jun 16, 11:20 PM)30.27 "Hg (Jun 16, 11:20 PM)
Low48 °F (Jun 16, 4:20 AM)41% (Jun 23, 4:20 PM)29.47 "Hg (Jun 14, 5:20 PM)
Average62 °F81%29.90 "Hg
* Reported Jun 11 11:20 PM — Jun 26 11:20 PM, Düren, Weather by CustomWeather, © 2016

Note: Actual official high and low records may vary slightly from our data, if they occured in-between our weather recording intervals... More about our weather records

Advertising

Düren Weather History for the Previous 24 Hours

Scroll right to see more
 ConditionsComfort  
Time TempWeatherWind HumidityBarometerVisibility
11:20 PM
Sun, Jun 26
57 °FPassing clouds.5 mph82%30.09 "HgN/A
10:20 PM57 °FPassing clouds.3 mph88%30.09 "HgN/A
9:20 PM61 °FPassing clouds.2 mph77%30.07 "HgN/A
8:20 PM61 °FPassing clouds.3 mph72%30.07 "HgN/A
7:20 PM63 °FPassing clouds.7 mph68%30.07 "HgN/A
6:20 PM59 °FPartly sunny.7 mph77%30.07 "HgN/A
5:20 PM59 °FSprinkles. Partly sunny.13 mph82%30.07 "HgN/A
4:20 PM66 °FBroken clouds.9 mph60%30.07 "HgN/A
3:20 PM66 °FPartly sunny.7 mph60%30.04 "HgN/A
2:20 PM66 °FScattered clouds.6 mph64%30.04 "HgN/A
1:20 PM64 °FScattered clouds.8 mph60%30.07 "HgN/A
12:20 PM64 °FScattered clouds.10 mph64%30.07 "HgN/A
11:20 AM63 °FPassing clouds.8 mph68%30.07 "HgN/A
10:20 AM63 °FScattered clouds.10 mph68%30.07 "HgN/A
9:20 AM61 °FScattered clouds.3 mph72%30.07 "HgN/A
8:20 AM59 °FScattered clouds.5 mph77%30.07 "HgN/A
7:20 AM55 °FPassing clouds.1 mph82%30.07 "HgN/A
6:20 AM52 °FPassing clouds.2 mph94%30.04 "HgN/A
5:20 AM52 °FCool.2 mph94%30.04 "HgN/A
4:20 AM54 °FCool.7 mph94%30.04 "HgN/A
3:20 AM54 °FCool.5 mph94%30.04 "HgN/A
2:20 AM54 °FCool.3 mph94%30.04 "HgN/A
1:20 AM55 °FCool.6 mph88%30.04 "HgN/A
12:20 AM55 °FCool.5 mph94%30.04 "HgN/A
Weather by CustomWeather, © 2016

See weather overviewHow to use our weather pages